Location: Il Ritiro
(43.4167°N, 13.1333°E)
Time: 17:07:15
(UTC+00:00)

Cosmos 2278 Rocket - Pass Details

Date: 05 July 2020
Orbit: 841 x 845 km, 71.0° (Epoch: 11 August)

Event Time Altitude Azimuth Distance (km) Brightness Sun altitude
Rises 22:46:28 0° 323° (NW) 3,412 6.3 -23.7°
Reaches altitude 10° 22:49:19 10° 311° (NW) 2,472 5.2 -23.7°
Maximum altitude 22:53:48 25° 258° (WSW) 1,654 3.6 -23.8°
Enters shadow 22:54:40 24° 244° (WSW) 1,690 3.5 -23.8°
